Whitefield, NH

5:54 PM EDT on August 31, 2016 (GMT -0400)
Mount Washington Regional

Weather History for KHIE - September, 2013

Change the Weather History Date:

Saturday, September 7, 2013

  Actual Average Record
Temperature  
Mean Temperature 56 °F -  
Max Temperature 73 °F 71 °F 88 °F (2007)
Min Temperature 39 °F 42 °F 30 °F (2000)
Degree Days  
Heating Degree Days 9    
Growing Degree Days 6 (Base 50)    
Moisture  
Dew Point 46 °F    
Average Humidity 72    
Maximum Humidity 90    
Minimum Humidity 33    
Precipitation  
Precipitation 0.00 in - - ()
Sea Level Pressure  
Sea Level Pressure 29.97 in    
Wind  
Wind Speed 1 mph (WSW)    
Max Wind Speed 8 mph    
Max Gust Speed -    
Visibility 10 miles    
Events Rain    
Averages and records for this station are not official NWS values.
T = Trace of Precipitation, MM = Missing Value Source: NWS Daily Summary

Daily Weather History Graph

Daily Weather History Graph

Search for Another Location

Airport or City:

Trip Planner

Search our weather history database for the weather conditions in past years. The results will help you decide how hot, cold, wet, or windy it might be!

Date:

Astronomy

Sep. 07, 2013 Rise Set
Actual Time 6:16 AM EDT 7:11 PM EDT
Civil Twilight 5:46 AM EDT 7:40 PM EDT
Nautical Twilight 5:11 AM EDT 8:15 PM EDT
Astronomical Twilight 4:34 AM EDT 8:52 PM EDT
Moon 8:34 AM EDT (9/7) 7:59 PM EDT (9/7)
Length of Visible Light 13h 54m
Length of Day
12h 55m
Waxing Crescent, 5% of the Moon is Illuminated
Sep 7
Waxing Crescent
Sep 12
First Quarter
Sep 19
Full
Sep 26
Last Quarter
Oct 4
New

Hourly Weather History & Observations

Time (EDT) Temp. Dew Point Humidity Pressure Visibility Wind Dir Wind Speed Gust Speed Precip Events Conditions
12:52 AM 43.0 °F 39.9 °F 89% 30.09 in 10.0 mi Calm Calm - N/A   Clear
1:52 AM 42.1 °F 39.0 °F 89% 30.07 in 10.0 mi Calm Calm - N/A   Clear
2:52 AM 42.1 °F 39.0 °F 89% 30.06 in 10.0 mi Calm Calm - N/A   Scattered Clouds
3:52 AM 41.0 °F 37.9 °F 89% 30.07 in 10.0 mi Calm Calm - N/A   Clear
4:52 AM 39.9 °F 37.0 °F 89% 30.07 in 10.0 mi Calm Calm - N/A   Clear
5:52 AM 39.9 °F 37.0 °F 89% 30.07 in 10.0 mi Calm Calm - N/A   Clear
6:52 AM 41.0 °F 37.9 °F 89% 30.06 in 10.0 mi Calm Calm - N/A   Clear
7:52 AM 45.0 °F 42.1 °F 90% 30.05 in 10.0 mi Calm Calm - N/A   Clear
8:52 AM 51.1 °F 46.0 °F 83% 30.04 in 10.0 mi Calm Calm - N/A   Clear
9:52 AM 54.0 °F 46.9 °F 77% 30.02 in 10.0 mi Calm Calm - N/A   Clear
10:52 AM 60.1 °F 48.9 °F 67% 30.00 in 10.0 mi Calm Calm - N/A   Clear
11:52 AM 70.0 °F 50.0 °F 49% 29.96 in 10.0 mi Variable 4.6 mph - N/A   Clear
12:52 PM 73.9 °F 43.0 °F 33% 29.94 in 10.0 mi WSW 6.9 mph - N/A   Partly Cloudy
1:52 PM 71.1 °F 46.0 °F 41% 29.93 in 10.0 mi West 8.1 mph - N/A   Clear
2:52 PM 69.1 °F 48.9 °F 49% 29.91 in 10.0 mi West 3.5 mph - N/A   Mostly Cloudy
3:52 PM 68.0 °F 51.1 °F 55% 29.91 in 10.0 mi WSW 4.6 mph - 0.00 in   Overcast
4:52 PM 66.9 °F 52.0 °F 59% 29.90 in 10.0 mi Calm Calm - 0.00 in Rain Light Rain
5:52 PM 63.0 °F 54.0 °F 72% 29.90 in 10.0 mi Calm Calm - 0.00 in   Scattered Clouds
6:52 PM 62.1 °F 51.1 °F 67% 29.89 in 10.0 mi Calm Calm - N/A   Overcast
7:52 PM 61.0 °F 50.0 °F 67% 29.89 in 10.0 mi Calm Calm - 0.00 in Rain Light Rain
8:52 PM 61.0 °F 51.1 °F 70% 29.88 in 10.0 mi South 3.5 mph - 0.00 in   Overcast
9:52 PM 59.0 °F 54.0 °F 83% 29.87 in 10.0 mi Calm Calm - N/A   Overcast
10:52 PM 59.0 °F 53.1 °F 81% 29.85 in 10.0 mi Calm Calm - N/A   Overcast
11:52 PM 61.0 °F 48.9 °F 64% 29.83 in 10.0 mi Calm Calm - N/A   Overcast